TimeEDT,TemperatureF,Dew PointF,Humidity,Sea Level PressureIn,VisibilityMPH,Wind Direction,Wind SpeedMPH,Gust SpeedMPH,PrecipitationIn,Events,Conditions,WindDirDegrees,DateUTC
12:54 AM,63.0,57.0,81,30.10,10.0,Calm,Calm,-,N/A,,Clear,0,2014-08-01 04:54:00
1:54 AM,62.1,57.9,86,30.09,10.0,Calm,Calm,-,N/A,,Clear,0,2014-08-01 05:54:00
2:54 AM,63.0,57.0,81,30.08,10.0,Calm,Calm,-,N/A,,Clear,0,2014-08-01 06:54:00
3:54 AM,60.8,55.4,82,30.11,10.0,Calm,Calm,-,N/A,,Clear,0,2014-08-01 07:54:00
4:54 AM,61.0,55.9,83,30.09,9.0,Calm,Calm,-,N/A,,Clear,0,2014-08-01 08:54:00
5:54 AM,59.0,55.9,90,30.10,6.0,Calm,Calm,-,N/A,,Clear,0,2014-08-01 09:54:00
6:54 AM,60.1,57.0,90,30.11,5.0,Calm,Calm,-,N/A,,Clear,0,2014-08-01 10:54:00
7:54 AM,64.9,60.1,84,30.13,6.0,Calm,Calm,-,N/A,,Haze,0,2014-08-01 11:54:00
8:54 AM,69.1,62.1,78,30.14,8.0,South,3.5,-,N/A,,Clear,170,2014-08-01 12:54:00
9:54 AM,73.9,63.0,68,30.13,10.0,South,5.8,-,N/A,,Clear,180,2014-08-01 13:54:00
10:54 AM,77.0,62.1,60,30.13,10.0,SW,3.5,-,N/A,,Clear,230,2014-08-01 14:54:00
11:54 AM,79.0,61.0,54,30.13,10.0,Variable,3.5,-,N/A,,Clear,0,2014-08-01 15:54:00
12:54 PM,81.0,61.0,50,30.12,10.0,WSW,4.6,-,N/A,,Clear,250,2014-08-01 16:54:00
1:54 PM,80.6,57.2,45,30.13,10.0,West,3.5,-,N/A,,Scattered Clouds,270,2014-08-01 17:54:00
2:54 PM,82.9,60.1,46,30.10,10.0,South,8.1,-,N/A,,Mostly Cloudy,180,2014-08-01 18:54:00
3:29 PM,82.4,60.8,48,30.11,10.0,SSE,3.5,-,N/A,Thunderstorm,Mostly Cloudy,160,2014-08-01 19:29:00
3:52 PM,82.4,60.8,48,30.10,10.0,SE,5.8,-,N/A,,Clear,130,2014-08-01 19:52:00
3:54 PM,82.9,61.0,47,30.09,10.0,South,6.9,-,N/A,,Clear,170,2014-08-01 19:54:00
4:49 PM,80.6,59.0,48,30.10,10.0,SSE,8.1,-,N/A,Thunderstorm,Clear,150,2014-08-01 20:49:00
4:54 PM,80.1,57.9,47,30.08,10.0,Variable,4.6,-,N/A,Thunderstorm,Clear,0,2014-08-01 20:54:00
5:17 PM,81.0,55.9,42,30.09,10.0,ESE,5.8,-,N/A,,Clear,120,2014-08-01 21:17:00
5:54 PM,80.6,55.4,42,30.09,10.0,East,3.5,-,N/A,,Clear,100,2014-08-01 21:54:00
6:54 PM,80.1,57.9,47,30.07,10.0,Calm,Calm,-,N/A,,Clear,0,2014-08-01 22:54:00
7:54 PM,77.0,59.0,54,30.07,10.0,East,3.5,-,N/A,,Clear,80,2014-08-01 23:54:00
8:54 PM,73.9,63.0,68,30.08,8.0,North,6.9,-,N/A,,Clear,360,2014-08-02 00:54:00
9:54 PM,72.0,62.1,71,30.10,9.0,Calm,Calm,-,N/A,,Mostly Cloudy,0,2014-08-02 01:54:00
10:54 PM,72.0,62.1,71,30.09,9.0,Calm,Calm,-,N/A,,Mostly Cloudy,0,2014-08-02 02:54:00
11:54 PM,69.1,62.1,78,30.09,8.0,Calm,Calm,-,N/A,,Clear,0,2014-08-02 03:54:00